Temperature
18 18 18 18 18 18 18 18 18 18 18 18 18 18 18 18 18 18 18 18 17 17 17 17 17 17 17 17 17 17 16 16 16 16 16 16 16 16 16 16 16 16 16
18 18 18 18 18 18 18 18 18 18 18 18 18 18 18 18 18 18 18 18 17 17 17 17 17 17 17 17 17 16 16 16 16 16 16 16 16 16 16 16 16 16 16
18 18 18 18 18 18 18 18 18 18 18 18 18 18 18 18 18 18 18 17 17 17 17 17 17 17 17 16 16 16 16 16 16 16 16 16 16 16 16 15 15 15 15
18 18 18 18 18 18 18 18 18 18 18 18 18 18 18 18 18 17 17 17 17 17 17 17 16 16 16 16 16 16 16 16 16 16 16 15 15 15 15 15 15 15 15
18 18 18 18 18 18 18 18 18 18 18 18 18 18 18 18 18 17 17 17 17 17 17 16 16 16 16 16 16 16 16 16 16 16 16 15 15 15 15 15 15 15 15
18 18 18 18 18 18 18 18 18 18 18 18 18 18 17 17 17 17 17 17 17 17 17 16 16 16 16 16 16 16 16 16 16 16 15 15 15 15 15 15 15 15 15
18 18 18 18 18 18 18 18 18 18 18 17 17 17 17 17 17 17 17 17 17 17 16 16 16 16 16 16 16 16 16 16 16 16 15 15 15 15 15 15 15 15 15
18 18 18 18 18 18 18 18 18 18 17 17 17 17 17 17 17 17 17 17 17 16 16 16 16 16 16 16 16 16 16 16 15 15 15 15 15 15 15 15 15 14 14
18 18 18 18 18 18 18 18 18 18 18 17 17 17 17 17 17 17 17 17 16 16 16 16 16 16 16 16 16 16 15 15 15 15 15 15 15 15 15 15 14 14 14
19 19 18 18 18 18 18 18 18 18 18 17 17 17 17 17 17 17 17 17 16 16 16 16 16 16 16 16 16 15 15 15 15 15 15 15 15 15 15 14 14 14 14
19 19 19 18 18 18 18 18 18 18 18 18 17 17 17 17 17 16 16 16 16 16 16 16 16 16 16 16 15 15 15 15 15 15 15 15 15 15 15 14 14 14 14
19 19 19 19 18 18 18 18 18 18 18 18 17 17 17 17 17 17 16 16 16 16 16 16 16 16 16 15 15 15 15 15 15 15 15 15 15 15 14 14 14 14 14
19 19 19 19 19 18 18 18 18 18 18 18 17 17 17 17 17 16 16 16 16 16 16 16 16 16 16 15 15 15 15 15 15 15 15 14 14 14 14 14 14 14 14
19 19 19 19 19 18 18 18 18 18 18 18 17 17 17 17 17 16 16 16 16 16 16 16 16 16 15 15 15 15 15 15 15 14 14 14 14 14 14 14 14 14 14
19 19 19 19 19 19 18 18 18 18 18 18 17 17 17 17 17 17 16 16 16 15 16 16 16 16 15 15 15 15 15 15 14 14 14 14 14 14 14 14 14 13 13
19 19 19 19 19 19 18 18 18 18 18 18 17 17 17 17 17 17 16 16 16 16 15 16 16 15 15 15 15 15 15 14 14 14 14 14 14 14 14 14 13 13 13
19 19 19 19 19 19 19 18 18 18 18 18 18 17 17 17 17 17 16 16 16 16 15 15 15 15 15 15 15 15 14 14 14 14 14 14 13 13 13 13 13 13 13
19 19 19 19 19 19 19 18 18 18 18 18 17 17 17 17 17 17 16 16 16 16 16 15 15 15 15 15 14 14 14 14 14 14 14 13 13 13 13 13 13 13 13
19 19 19 19 19 19 18 18 18 18 18 17 17 17 17 17 17 16 16 16 16 16 15 15 15 15 15 14 14 14 14 14 14 13 13 13 13 13 13 13 13 13 13
20 19 19 19 19 18 18 18 18 17 17 17 17 17 16 16 16 16 16 16 16 15 15 15 15 15 14 14 14 14 14 14 13 13 13 13 13 13 13 13 13 12 12
20 19 19 19 19 18 18 18 17 17 17 17 17 16 16 16 16 16 16 15 15 15 15 15 15 15 14 14 14 14 13 13 13 13 13 13 13 13 12 12 12 12 12
19 19 19 19 19 18 18 17 17 17 17 17 16 16 16 16 16 16 15 15 15 15 15 15 15 14 14 14 14 14 13 13 13 13 13 13 12 12 12 12 12 12 12
19 19 19 18 18 18 17 17 17 17 16 16 16 16 16 16 15 15 15 15 15 15 15 14 14 14 14 14 14 13 13 13 13 13 12 12 12 12 12 12 12 12 12
19 19 18 18 18 18 17 17 17 16 16 16 16 15 15 15 15 15 15 15 15 15 14 14 14 14 14 13 13 13 13 13 13 12 12 12 12 12 12 12 12 12 12
19 19 18 18 18 18 17 17 16 16 16 16 15 15 15 15 15 14 14 14 14 14 14 14 14 13 13 13 13 13 13 12 12 12 12 12 12 12 12 12 12 12 12
19 18 18 18 17 17 17 17 16 16 16 15 15 15 15 15 14 14 14 14 14 14 14 14 14 13 13 13 13 13 13 12 12 12 12 12 12 12 12 12 12 12 12
Wind_Speed
1 1 1 1 1 2 2 2 2 2 2 2 3 3 3 4 4 4 4 6 7 7 7 9 9 10 10 10 11 11 12 12 11 10 10 10 10 10 10 10 9 9 9
2 2 1 1 1 2 2 2 2 2 2 2 2 2 3 3 4 4 4 4 5 6 7 8 9 9 9 10 10 11 12 12 11 10 11 11 11 11 11 10 10 10 10
4 3 2 1 2 2 3 2 2 2 2 1 1 1 2 2 3 3 4 3 4 4 5 6 7 8 8 8 9 10 12 13 13 12 12 12 12 12 12 11 11 10 10
5 4 2 2 2 3 3 2 2 2 2 1 1 1 1 1 2 3 3 3 3 3 5 6 7 7 8 9 9 10 11 12 13 12 12 13 13 12 12 12 12 12 11
5 4 3 2 3 3 2 2 2 2 2 1 1 1 1 0 1 1 2 3 3 3 4 5 6 6 7 7 8 9 10 11 12 12 12 12 12 12 12 12 12 12 11
5 5 3 3 3 3 2 2 2 2 2 2 2 2 1 1 0 0 1 1 2 3 4 4 4 5 6 5 5 6 7 9 10 10 11 11 11 13 13 13 13 12 11
4 4 3 3 3 3 3 3 3 3 2 2 2 2 2 1 0 0 0 1 2 2 3 3 3 3 4 4 5 5 6 7 8 9 9 10 11 11 11 12 12 12 12
4 4 4 3 3 3 2 3 3 2 2 2 2 2 1 2 1 1 0 1 1 1 2 2 3 3 3 3 3 4 4 6 7 7 8 9 9 8 9 9 11 12 12
4 4 4 4 3 3 3 3 4 4 3 1 1 2 2 2 1 1 1 0 1 1 1 2 2 3 3 3 3 3 3 3 4 5 5 6 7 7 7 8 9 11 12
4 4 4 4 4 3 4 4 4 3 4 3 1 1 1 2 2 1 1 1 1 1 1 1 1 2 2 2 2 2 3 3 3 3 3 3 5 6 6 7 8 10 11
2 3 4 4 4 3 4 4 4 4 3 3 3 2 1 1 1 2 2 1 1 1 1 2 1 2 2 2 2 2 2 2 2 2 2 2 3 4 6 6 7 8 9
1 2 3 3 4 3 4 4 4 5 4 4 3 3 3 2 3 2 2 2 2 2 1 1 1 2 2 2 3 3 2 2 1 1 1 1 2 4 5 5 5 5 7
2 3 3 3 3 4 4 4 4 4 4 4 4 3 3 3 2 3 2 2 1 1 1 1 2 2 2 2 2 3 2 2 1 1 1 0 0 1 3 4 5 5 6
3 3 4 4 4 4 4 4 4 4 3 4 4 4 3 3 3 3 3 3 1 1 1 3 1 2 2 2 2 2 1 2 2 1 1 1 1 1 1 4 5 4 5
3 3 4 4 4 4 4 4 3 4 3 3 4 4 3 3 3 4 4 4 3 2 3 2 1 1 1 2 2 2 2 1 2 1 1 2 2 1 1 3 4 4 5
2 3 3 3 3 3 4 4 3 3 3 3 3 3 3 3 3 3 4 4 4 4 3 2 2 1 1 1 2 2 2 2 2 2 2 3 2 3 3 4 5 5 5
2 3 3 3 3 3 3 4 4 3 4 4 3 4 4 3 3 3 3 4 4 4 3 2 1 1 2 2 1 1 1 1 2 3 3 3 3 4 4 5 5 6 6
3 3 3 3 3 3 3 4 4 4 4 4 4 4 4 3 4 3 3 4 4 4 4 4 2 1 2 2 2 1 1 1 2 3 4 4 4 4 5 5 6 6 7
3 3 3 3 3 3 3 3 4 4 4 4 4 4 4 3 3 3 3 4 3 4 3 3 2 1 1 1 1 1 1 1 2 2 3 4 5 5 6 6 6 6 7
4 4 4 3 3 3 3 3 3 3 3 3 3 3 3 4 4 4 4 4 4 3 3 3 2 2 2 2 2 2 2 2 2 2 2 3 5 6 6 7 7 7 8
5 4 4 3 3 3 3 3 3 4 4 3 3 3 3 3 4 4 3 4 4 4 3 3 3 2 2 3 3 3 3 2 2 2 2 2 3 4 5 7 8 9 10
3 3 4 4 3 3 3 4 4 3 3 4 3 3 2 2 2 3 3 4 5 5 5 4 3 4 4 4 3 4 3 2 2 2 3 3 3 4 5 7 9 11 12
4 4 4 4 4 3 3 4 4 3 3 3 3 3 3 2 3 2 2 2 4 5 6 5 5 5 5 5 5 5 5 5 4 3 3 3 3 4 5 8 11 13 13
4 4 4 4 4 3 4 4 4 3 3 3 3 4 4 3 3 2 2 2 2 4 5 5 5 6 5 5 6 5 5 4 2 2 4 3 3 4 4 6 11 14 15
4 4 3 4 4 3 4 5 5 3 3 3 3 3 4 4 3 3 3 3 3 3 4 5 5 5 5 5 6 4 4 4 4 3 4 3 3 3 3 4 8 12 14
4 4 3 3 3 3 3 4 5 3 2 2 2 3 4 4 4 4 4 4 5 5 3 3 3 3 4 5 7 7 6 6 4 3 5 5 3 2 2 3 4 7 10
Wind_Direction
151 132 135 122 117 136 134 127 111 109 117 127 142 155 169 178 185 193 201 207 210 212 210 206 208 211 211 213 214 216 215 215 213 213 212 212 212 211 211 212 209 209 207
171 150 147 149 171 173 160 148 138 132 140 141 151 164 177 181 191 197 201 211 220 223 227 218 214 217 218 221 225 226 222 221 219 221 219 217 217 218 219 217 216 214 211
179 168 157 165 172 159 142 128 116 113 136 136 146 154 159 173 183 191 194 200 219 231 235 229 223 223 226 232 235 232 225 222 220 221 221 222 222 220 221 223 223 221 216
181 168 164 178 170 146 137 132 122 118 131 140 151 166 146 161 188 188 191 202 217 237 248 245 238 236 238 240 241 240 231 224 223 223 223 226 226 223 224 225 223 220 216
179 169 168 172 160 146 142 151 130 135 143 147 146 106 81 145 203 198 192 206 218 230 242 256 249 246 250 250 246 243 237 227 226 227 227 227 227 225 224 224 221 217 212
174 165 164 164 152 144 146 142 134 128 137 134 111 74 39 27 48 305 235 225 232 236 236 244 250 258 260 257 256 254 248 234 229 230 230 227 229 230 227 225 218 212 210
170 165 164 160 159 164 168 153 134 127 116 116 98 61 33 36 55 321 278 258 261 256 242 239 240 246 262 269 271 267 263 252 241 236 232 229 232 231 228 223 216 212 208
183 178 174 176 172 164 157 154 143 137 144 139 131 114 18 347 353 20 347 258 276 275 261 252 243 244 252 263 281 279 275 267 252 243 237 228 225 224 225 223 217 211 205
183 181 178 176 177 174 180 178 165 161 172 174 160 156 163 223 288 332 346 317 305 286 277 278 257 255 252 252 266 285 288 291 271 261 255 229 217 211 212 215 215 207 204
182 183 180 178 181 182 184 190 178 173 165 182 189 196 187 163 172 283 315 319 314 282 284 283 274 264 257 251 262 282 294 298 290 268 267 242 220 209 207 209 219 210 204
187 186 183 182 189 192 193 188 176 176 178 182 183 173 151 142 166 184 252 297 315 289 271 259 261 270 270 259 257 263 284 307 309 290 273 252 233 218 211 213 222 214 208
211 204 192 190 195 195 194 195 189 185 189 186 187 182 176 177 187 186 213 244 262 281 281 269 259 267 267 256 249 246 248 255 271 271 246 244 245 231 208 209 210 207 202
227 222 203 197 200 200 195 186 186 197 195 194 199 202 202 206 180 174 179 208 235 269 285 265 250 251 251 244 246 244 234 217 210 207 178 191 244 243 211 206 199 193 194
226 217 200 202 205 197 192 183 190 202 198 205 213 207 209 215 196 190 183 176 206 262 254 252 261 239 237 226 229 220 213 211 200 176 152 135 107 56 215 199 189 186 181
223 209 199 201 202 193 188 182 196 204 195 206 216 214 214 217 203 203 194 184 183 224 253 240 240 235 220 206 207 177 179 201 211 191 163 145 122 107 117 146 162 161 158
208 192 197 199 198 194 188 182 194 197 194 214 212 211 220 220 206 199 194 193 194 201 232 241 230 226 201 190 175 169 192 204 196 184 176 160 141 127 130 134 145 153 150
190 192 192 185 190 200 194 188 203 196 203 220 217 213 225 218 212 209 199 193 197 191 219 258 244 215 194 194 167 159 176 191 187 178 176 165 149 138 137 141 147 150 149
199 196 185 186 198 204 198 196 206 206 210 222 228 225 233 222 219 215 207 211 208 200 201 224 239 203 213 205 187 191 200 208 201 190 185 178 169 162 161 155 149 148 153
195 191 186 194 203 202 199 203 204 210 214 222 225 225 233 219 225 222 218 217 212 205 202 205 229 211 209 183 168 192 205 217 212 195 190 194 191 184 179 173 162 158 160
189 193 195 199 203 204 204 205 205 213 221 226 223 225 230 221 223 222 222 218 205 194 187 192 215 224 212 183 174 195 216 219 224 202 197 198 198 195 193 189 184 180 176
199 193 185 192 201 202 209 204 207 213 219 225 225 225 230 230 220 214 219 212 198 195 189 195 206 213 209 194 204 196 213 222 228 208 207 207 201 202 205 203 201 198 190
190 185 192 197 205 217 211 197 194 208 215 221 229 230 231 236 230 217 217 204 195 195 200 200 208 216 224 218 206 196 193 200 238 202 199 223 205 218 218 213 208 201 197
195 200 209 207 213 222 204 196 192 198 215 224 226 227 236 236 223 225 228 205 207 211 200 195 208 223 225 214 200 204 205 210 225 190 185 225 216 227 229 222 215 208 203
201 208 217 213 211 218 197 193 192 204 221 226 222 220 227 237 220 201 197 211 227 231 223 208 215 225 226 214 206 210 212 210 218 193 183 224 226 232 236 228 219 213 210
200 206 214 205 205 225 203 194 185 204 223 240 238 228 226 230 227 198 195 225 254 261 242 226 228 233 224 205 190 182 186 199 230 220 193 210 226 233 240 234 224 215 214
197 193 209 207 205 224 217 200 194 198 216 247 249 239 228 225 227 202 214 224 248 260 256 255 254 249 231 207 192 200 203 209 223 231 198 195 202 198 238 232 223 217 217
Height
1534 1536 1537 1539 1540 1541 1542 1544 1546 1547 1548 1549 1550 1551 1552 1552 1553 1554 1554 1554 1555 1555 1555 1555 1555 1556 1557 1557 1558 1559 1560 1560 1561 1563 1563 1564 1565 1566 1567 1568 1569 1570 1571
1535 1537 1538 1540 1541 1542 1544 1545 1546 1547 1548 1549 1550 1551 1551 1552 1553 1553 1553 1554 1554 1554 1555 1555 1554 1555 1555 1556 1556 1557 1558 1558 1559 1560 1561 1562 1563 1564 1565 1566 1567 1568 1569
1536 1538 1539 1541 1542 1543 1544 1546 1547 1548 1548 1549 1550 1550 1551 1551 1552 1552 1553 1553 1553 1553 1553 1554 1553 1554 1554 1554 1554 1555 1555 1556 1557 1558 1559 1560 1561 1562 1563 1564 1565 1566 1567
1537 1539 1540 1541 1542 1544 1545 1546 1547 1547 1548 1549 1549 1550 1550 1551 1551 1551 1552 1552 1552 1552 1552 1552 1552 1552 1552 1552 1552 1552 1553 1554 1555 1556 1557 1557 1558 1560 1561 1562 1563 1564 1565
1538 1539 1540 1542 1543 1544 1545 1546 1546 1547 1548 1548 1549 1549 1550 1550 1551 1551 1551 1551 1551 1551 1551 1551 1551 1550 1550 1550 1550 1550 1551 1551 1552 1553 1554 1555 1555 1556 1558 1559 1560 1561 1562
1538 1539 1541 1542 1543 1544 1545 1545 1546 1547 1548 1548 1548 1549 1549 1549 1550 1550 1550 1550 1550 1550 1549 1549 1549 1549 1549 1548 1548 1548 1548 1549 1549 1550 1550 1551 1552 1553 1554 1555 1556 1558 1559
1539 1540 1541 1542 1543 1544 1545 1545 1546 1547 1547 1548 1548 1548 1549 1549 1549 1549 1549 1549 1548 1548 1548 1548 1547 1547 1547 1547 1546 1546 1546 1546 1546 1547 1547 1548 1549 1550 1551 1552 1553 1554 1555
1539 1540 1541 1542 1543 1544 1545 1545 1546 1546 1547 1547 1548 1548 1548 1549 1548 1548 1548 1547 1547 1547 1547 1546 1546 1546 1545 1545 1545 1544 1544 1544 1544 1544 1544 1544 1545 1546 1547 1549 1549 1550 1551
1539 1540 1541 1542 1542 1543 1544 1544 1545 1545 1546 1546 1547 1547 1547 1546 1547 1547 1546 1546 1546 1546 1545 1545 1545 1544 1544 1543 1543 1543 1542 1542 1542 1542 1542 1542 1542 1543 1544 1545 1546 1547 1548
1539 1540 1540 1541 1542 1542 1543 1543 1544 1544 1545 1545 1545 1545 1546 1546 1546 1545 1546 1545 1545 1544 1544 1543 1543 1543 1542 1542 1541 1541 1541 1540 1540 1540 1540 1540 1540 1540 1541 1542 1542 1544 1545
1538 1539 1540 1540 1541 1541 1542 1542 1543 1543 1543 1543 1543 1544 1544 1544 1544 1544 1543 1544 1543 1543 1542 1542 1541 1541 1541 1540 1540 1539 1539 1538 1538 1538 1538 1537 1537 1537 1538 1539 1540 1541 1542
1537 1538 1539 1539 1540 1540 1541 1541 1541 1542 1542 1542 1542 1542 1542 1542 1542 1542 1541 1541 1541 1541 1541 1540 1540 1539 1539 1539 1538 1538 1537 1536 1536 1536 1536 1535 1535 1535 1535 1536 1537 1538 1539
1536 1537 1538 1538 1539 1539 1539 1540 1540 1540 1540 1540 1540 1540 1541 1541 1541 1540 1540 1539 1539 1539 1538 1538 1538 1538 1537 1537 1536 1536 1535 1535 1535 1534 1534 1534 1533 1533 1533 1534 1535 1536 1537
1534 1535 1536 1536 1537 1537 1537 1538 1538 1538 1538 1538 1538 1538 1539 1539 1539 1538 1538 1538 1537 1537 1536 1536 1536 1536 1535 1535 1535 1534 1534 1534 1533 1533 1532 1532 1532 1531 1532 1532 1533 1534 1535
1532 1533 1533 1534 1535 1535 1535 1535 1536 1536 1536 1537 1537 1537 1536 1536 1536 1536 1536 1537 1537 1535 1534 1534 1534 1534 1533 1533 1533 1533 1532 1532 1532 1531 1531 1530 1530 1530 1530 1530 1531 1532 1533
1530 1530 1531 1532 1532 1533 1533 1534 1534 1534 1534 1534 1534 1534 1533 1533 1534 1534 1533 1534 1534 1534 1533 1532 1532 1532 1532 1532 1531 1531 1531 1530 1530 1530 1529 1529 1529 1529 1529 1529 1529 1530 1531
1528 1528 1529 1530 1530 1531 1531 1531 1531 1532 1531 1531 1531 1531 1531 1531 1531 1531 1531 1530 1530 1530 1530 1529 1530 1530 1530 1529 1529 1529 1529 1528 1528 1528 1528 1528 1527 1528 1528 1528 1528 1529 1530
1526 1526 1527 1527 1528 1528 1529 1529 1529 1529 1528 1528 1528 1528 1528 1528 1528 1528 1528 1527 1527 1527 1527 1526 1526 1527 1527 1527 1527 1527 1527 1526 1526 1526 1526 1526 1526 1526 1527 1527 1527 1527 1528
1524 1525 1525 1525 1526 1526 1526 1526 1526 1526 1525 1525 1525 1525 1525 1525 1524 1524 1524 1524 1524 1524 1524 1523 1523 1523 1523 1524 1524 1524 1524 1524 1524 1524 1524 1524 1524 1525 1525 1525 1526 1526 1527
1521 1522 1523 1523 1523 1523 1523 1523 1523 1522 1522 1522 1522 1522 1522 1522 1521 1521 1521 1521 1521 1521 1521 1520 1520 1520 1520 1520 1521 1521 1521 1522 1522 1522 1522 1522 1522 1523 1523 1523 1524 1524 1525
1518 1518 1519 1519 1520 1520 1520 1520 1520 1519 1519 1519 1519 1518 1519 1518 1518 1518 1518 1517 1517 1517 1517 1517 1516 1516 1516 1516 1517 1517 1518 1518 1518 1519 1519 1520 1520 1520 1521 1521 1522 1522 1523
1514 1515 1515 1515 1516 1516 1516 1516 1516 1516 1516 1515 1515 1515 1515 1515 1515 1515 1514 1514 1514 1514 1514 1513 1513 1512 1513 1513 1514 1514 1514 1515 1515 1516 1516 1517 1517 1517 1518 1519 1519 1519 1520
1511 1511 1511 1512 1512 1512 1512 1512 1512 1512 1512 1512 1511 1511 1511 1511 1511 1511 1511 1510 1510 1510 1510 1510 1509 1509 1509 1510 1510 1510 1511 1511 1511 1512 1513 1513 1514 1514 1515 1515 1516 1517 1517
1507 1507 1508 1509 1508 1508 1509 1509 1509 1509 1508 1508 1507 1507 1507 1507 1507 1507 1507 1506 1506 1506 1506 1506 1506 1506 1507 1507 1507 1507 1507 1507 1508 1509 1509 1510 1510 1510 1511 1512 1513 1513 1514
1503 1503 1504 1505 1505 1505 1505 1505 1504 1504 1504 1504 1504 1504 1504 1504 1504 1504 1503 1502 1502 1502 1502 1502 1502 1503 1503 1503 1503 1503 1503 1503 1503 1504 1505 1505 1506 1506 1507 1507 1509 1509 1510
1499 1500 1501 1501 1501 1501 1501 1501 1501 1499 1499 1500 1499 1499 1500 1499 1500 1500 1499 1499 1498 1498 1498 1498 1498 1498 1498 1498 1498 1498 1499 1499 1499 1499 1500 1501 1501 1502 1502 1503 1504 1505 1506